www.pogodaiklimat.ru
ПОГОДА в Камберленде
Время
и дата
01:40 27.09
02:00 27.09
02:20 27.09
02:40 27.09
02:55 27.09
03:15 27.09
03:30 27.09
04:00 27.09
04:20 27.09
04:40 27.09
05:00 27.09
05:20 27.09
05:40 27.09
06:15 27.09
06:35 27.09
06:50 27.09
07:15 27.09
07:25 27.09
07:55 27.09
08:15 27.09
08:35 27.09
08:55 27.09
09:15 27.09
09:35 27.09
09:55 27.09
10:15 27.09
10:35 27.09
10:55 27.09
11:15 27.09
11:35 27.09
12:00 27.09
12:15 27.09
13:55 27.09
20:40 27.09
01:20 28.09
02:00 28.09
03:55 28.09
04:15 28.09
09:20 28.09
09:30 28.09
12:00 28.09
16:20 28.09
16:40 28.09
18:00 28.09
19:20 28.09
21:20 28.09
23:20 28.09
23:40 28.09
Ветер
(напр.,м/с)
Видим. Явления Облачность Т
(С)
Тd
(С)
f
(%)
Тe
(С)
Тes
(С)
Комфортность P
(гПа)
Po
(гПа)
Тmin
(С)
Tmax
(С)
R
(мм)
R24
(мм)
S
(см)
штиль 0 16 км ясно +13.0 +6.0 62 +13 +13 985.4
ЮЗ 2 16 км ясно +12.4 +6.1 65 +12 +12 985.0
ЮЗ 2 16 км ясно +12.0 +6.2 68 +11 +11 985.0
ЮЗ 3 16 км ясно +11.5 +6.2 70 +10 +10 985.0
ЮЗ 3 16 км ясно +11.3 +6.2 71 +10 +10 985.0
З 4 16 км ясно +10.9 +6.2 73 +9 +9 985.0
З 3 16 км ясно +10.9 +6.2 73 +9 +9 985.0
Ю 2 16 км ясно +9.5 +6.5 82 +8 +8 985.0
штиль 0 16 км ясно +9.4 +6.5 82 +9 +9 985.0
штиль 0 16 км ясно +8.7 +6.4 85 +8 +8 985.0
штиль 0 16 км ясно +8.6 +6.5 87 +8 +8 985.4
ЮВ 2 16 км ясно +8.5 +6.6 88 +7 +7 985.4
штиль 0 16 км ясно +8.2 +6.4 88 +7 +7 985.4
штиль 0 16 км ясно +8.5 +6.4 87 +8 +8 985.7
штиль 0 16 км ясно +7.8 +6.3 90 +7 +7 985.7
Ю 2 16 км ясно +7.8 +6.6 92 +6 +6 986.0 +7.5 +13.9
штиль 0 16 км ясно +9.0 +7.0 87 +8 +9 986.0
ЮЗ 2 16 км ясно +9.7 +7.2 84 +8 +8 986.0
Ю 3 16 км ясно +11.8 +7.7 76 +10 +10 986.4
ЮЗ 3 16 км ясно +13.2 +7.5 68 +12 +14 986.4
ЮЗ 3 16 км ясно +14.3 +7.5 64 +13 +15 986.7
ЮЗ 4 16 км ясно +14.8 +7.5 62 +14 +15 986.7
ЮЗ 3 16 км 5/5 1380 м +15.2 +7.4 60 +15 +17 986.7
ЮЗ 3 16 км 5/5 1380 м +15.4 +7.0 57 +15 +17 986.7
ЮЗ 4 16 км 5/5 1440 м +16.6 +7.7 56 +16 +18 986.7
ЮЗ 3 16 км 8/8 1500 m
[Ac]
+16.6 +7.5 55 +16 +18 987.0
З 6
{11}
16 км 5/5 1500 m
[Ac]
+16.0 +4.1 45 +15 +16 987.0
З 4
{9}
16 км 8/0 2250 m
[Ac]
+16.3 +4.7 46 +16 +18 987.0
З 6
{9}
16 км 8/8 1950 m
[Ac]
+17.4 +4.6 43 +17 +18 987.0
З 7
{12}
16 км 8/8 1950 m
[Ac]
+17.4 +4.0 41 +16 +17 987.0
З 4 16 км 8/0 2100 m
[Ac]
+17.0 +4.2 43 +17 +20 987.4
З 7
{12}
16 км 8/0 2250 m
[Ac]
+17.0 +4.4 43 +16 +17 987.4
З 3 16 км 10/5 1800 m
[Ac]
+16.8 +5.1 46 +17 +18 986.7
Ю 2 16 км 8/8 960 м +9.0 +6.6 85 +7 +7 992.0
ЮЗ 2 16 км ясно +8.6 +5.6 81 +7 +7 992.9
штиль 0 16 км ясно +7.6 +5.4 86 +7 +7 993.3
Ю 2 16 км ясно +5.9 +5.1 95 +3 +3 993.6
штиль 0 16 км ясно +5.6 +4.7 94 +4 +4 993.6
штиль 0 16 км 10/10 810 м +12.3 +7.7 73 +12 +12 996.6
штиль 0 16 км 10/10 810 м +12.5 +7.8 73 +12 +12 996.9
С 6 16 км 8/8 1020 м +16.9 +9.6 62 +16 +17 996.9
СЗ 3 16 км 5/5 1350 м +15.5 +8.3 62 +15 +16 997.9
СЗ 4 16 км 10/10 1290 м +15.7 +8.5 62 +15 +15 998.2
СЗ 2 16 км 10/0 2100 m
[Ac]
+14.3 +8.6 69 +14 +14 998.9
С 2 16 км 5/0 2100 m
[Ac]
+13.2 +8.4 73 +13 +13 999.2
штиль 0 16 км ясно +11.2 +8.6 84 +11 +11 1000.2
штиль 0 16 км 5/0 2100 m
[Ac]
+9.0 +8.3 95 +8 +8 1001.2
штиль 0 16 км 5/0 2100 m
[Ac]
+9.2 +8.2 93 +8 +8 1001.2
Местоположение метеостанции Greater Cumberland Regional Airport: широта 39.6153 долгота -78.7608 высота над уровнем моря 236 м.
В архиве по умолчанию представлена погода в Камберленде за последние 1-2 суток. Обновление информации о фактической погоде в базе происходит ежечасно! Архивные данные за месяц целиком и за предыдущие месяцы Вы можете получить, выбрав интересующий диапазон дат из раскрывающегося списка и нажав кнопку "Ввод!".
Внимание! Архив погоды МЕТАР в базе сайта по станциям, не включенным в климатический монитор, хранится не более 60 дней. Нет смысла пытаться выбрать более раннюю дату.
*Определитесь, кто Вы:
Внимание! Время в таблицах - местное (без учета летнего времени). Для получения всемирного времени необходимо вычесть поправку, которая равна -5 ч.
Смотрите также архив погоды в соседних городах и на ближайших метеорологических станциях:
Партнеры нашего сайта:      
Пояснения к столбцам:
  • Ветер - указаны скорость ветра в м/с - средняя за 10 мин, порывы в срок и между сроками (в фигурных скобках) и направление, откуда дует ветер: С - северный,
  • СВ - северо-восточный, В - восточный, ЮВ - юго-восточный, Ю - южный, ЮЗ - юго-западный, З - западный, СЗ - северо-западный.
  • Видимость - горизонтальная дальность видимости в метрах или километрах. При видимости от 1 до 10 км при отсутствии осадков обычно наблюдается дымка, при ухудшении видимости до 1 км и менее - туман. В сухую погоду видимость может ухудшаться дымом, пылью или мглою.
  • Явления - указаны атмосферные явления, наблюдавшиеся в срок или в последний час перед сроком; фигурными скобками обозначены явления, наблюдавшиеся между сроками (за 1-3 часа до срока); квадратными скобками обозначены град или гололедные отложения с указанием их диаметра в мм.
  • Облачность - указаны через наклонную черту общая и нижняя облачность в баллах и высота нижней границы облаков в метрах; квадратными скобками обозначены формы облаков: Ci - перистые, Cs - перисто-слоистые, Cc - перисто-кучевые, Ac - высококучевые, As - высокослоистые, Sc - слоисто-кучевые, Ns - слоисто-дождевые, Cu - кучевые, Cb - кучево-дождевые. Подробнее классификацию облаков см. в Атласе облаков (PDF).
  • T - Температура воздуха - температура, измеренная на высоте 2 м над землей.
  • Td - Температура точки росы - температура, при понижении до которой содержащийся в воздухе водяной пар достигнет насыщения.
  • f - Относительная влажность воздуха - влажноcть воздуха, измеренная на высоте 2 м над землей.
  • Te - Эффективная температура - температура, которую ощущает одетый по сезону человек в тени. Характеристика душности погоды. При расчете учитывается влияние влажности воздуха и скорости ветра на теплоощущения человека.
  • Tes - Эффективная температура на солнце - температура, которую ощущает человек, с поправкой на солнечный нагрев. Характеристика знойности погоды. Зависит от высоты солнца над горизонтом, облачности и скорости ветра. Ночью, в пасмурную погоду, а также при ветре 12 м/с и более поправка равна нулю.
  • P - Атмосферное давление - приведенное к уровню моря атмосферное давление.
  • Po - Атмосферное давление - измеренное на уровне метеостанции атмосферное давление.
  • Tmin - Минимальная температура - минимум температуры воздуха на высоте 2 м над землей.
  • Tmax - Максимальная температура - максимум температуры воздуха на высоте 2 м над землей.
  • R - Количество осадков - Количество выпавших осадков за период времени, мм. При наведении курсора мыши на число - период времени, за который выпало указанное количество осадков.
  • R24 - Количество осадков - Количество выпавших осадков за 24 часа, мм.
  • S - Снежный покров - Высота снежного покрова, см. При наведении курсора мыши на число - состояние снежного покрова и степень покрытия местности в баллах.